www.pogodaiklimat.ru

Погода и климат >> Архив погоды >> Багамские Острова >> Большая Багама


ПОГОДА в Большой Багаме

  • Прогноз погоды в Большой Багаме
  • Монитор погоды в Большой Багаме

АРХИВ ПОГОДЫ в Большой Багаме

Время (UTC), дата Ветер
(напр.,м/с)
 
Видим.   Явления Облачность Т
(С)
Тd
(С)
f
(%)
Тe
(С)
Тes
(С)
Комфортность P
(гПа)
Po
(гПа)
Тmin
(С)
Tmax
(С)
R
(мм)
R24
(мм)
S
(см)
12 9.01 СЗ 5 19 км 3/3 750 м
[Cu hum Ci fib]
+19.1 +18.3 95 +21 +21 комфорт 1019.0 1019.0 +14.0 +26.0
15 9.01 СЗ 5 19 км 8/5 750 м
[Cu Sc Ci fib]
+24.0 +18.6 72 +29 +30 душно 1019.9 1020.0
18 9.01 СЗ 7 15 км мгла 10/1 600 м
[Cu hum Ac trans Cs]
+24.1 +17.9 68 +28 +30 душно 1017.2 1017.0
21 9.01 СЗ 6 15 км 9/4 540 м
[Cu Sc Ci sp]
+23.9 +17.4 67 +28 +28 душно 1016.2 1016.0
00 10.01 СЗ 6 15 км 9/3 540 м
[Cu hum Ci sp]
+21.2 +16.2 73 +25 +25 комфорт 1016.5 1017.0 +18.1 +25.0
12 10.01 СЗ 5 22 км 1/1 750 м
[Cu hum]
+18.3 +11.9 66 +18 +18 1015.8 1016.0 +17.3 +25.0
15 10.01 С 5 28 км 4/4 1050 м
[Cu hum]
+20.2 +13.0 63 +22 +24 комфорт 1017.7 1018.0
18 10.01 СЗ 6 28 км 5/5 1050 м
[Cu hum]
+21.3 +12.7 58 +24 +26 комфорт 1016.3 1016.0
21 10.01 С 6 22 км 4/4 900 м
[Cu hum]
+20.5 +12.4 60 +22 +23 комфорт 1015.5 1016.0
00 11.01 С 5 19 км 8/8 900 м
[Cu Sc]
+19.5 +12.1 62 +21 +21 комфорт 1017.2 1017.0 +22.3
12 11.01 В 2 15 км дымка 8/8 600 м
[Cu Sc]
+14.5 +11.9 84 +14 +14 1019.3 1019.0 +11.0 +22.3
15 11.01 СВ 5 19 км 3/3 600 м
[Cu Sc]
+22.0 +12.4 54 +24 +27 комфорт 1021.6 1022.0
18 11.01 СВ 7 19 км 8/8 750 м
[Cu Sc]
+21.6 +14.2 63 +25 +25 комфорт 1020.3 1020.0
21 11.01 СВ 7 19 км 4/4 750 м
[Cu Sc]
+21.9 +14.1 61 +25 +25 комфорт 1020.3 1020.0
00 12.01 В 3 15 км 3/3 750 м
[Cu Sc]
+18.0 +13.2 74 +18 +18 1021.6 1022.0 +12.1 +23.0
12 12.01 В 5 19 км мгла 3/3 540 м
[Cu Sc]
+17.3 +13.2 77 +17 +17 1022.6 1023.0 +14.0 +22.9
15 12.01 В 7 19 км 3/3 540 м
[Cu Sc Ci fib]
+23.1 +16.5 66 +28 +29 душно 1024.3 1024.0
18 12.01 В 7 19 км 6/6 540 м
[Cu Sc Ci fib]
+24.4 +17.6 66 +28 +29 душно 1022.4 1022.0
21 12.01 В 6 19 км 6/5 540 м
[Cu Sc Ci fib]
+24.0 +18.0 69 +28 +29 душно 1021.5 1022.0
00 13.01 В 3 15 км {ливн. осадки} 8/6 540 м
[Cu Sc Ci fib]
+22.7 +17.5 72 +28 +28 душно 1022.5 1023.0 +14.0 +25.5 0.0
12 13.01 ЮВ 5 15 км осадки на расстоянии {ливн. осадки} 6/6 360 м
[St]
+21.0 +19.6 92 1021.0 +19.0 +25.5 7
15 13.01 ЮВ 5 11 км слаб. ливневой дождь 9/9 450 м
[Cu Sc]
+22.5 +21.6 95 +30 +30 очень
душно
1022.0 1022.0
18 13.01 Ю 5 19 км осадки на расстоянии {ливн. осадки} 4/4 450 м
[Cu Sc Ci fib]
+25.0 +21.4 80 +32 +35 очень
душно
1019.9 1020.0 2
21 13.01 Ю 5 19 км 3/3 600 м
[Cu hum]
+25.1 +10.6 40 +26 +27 жарко 1019.5 1020.0
00 14.01 Ю 3 19 км 3/3 600 м
[Cu hum]
+22.0 +20.1 89 +28 +28 душно 1020.3 1020.0 +19.0 +25.8
12 14.01 штиль 0 13 км дымка {ливн. осадки} 1/1 540 м
[Cu hum]
+20.3 +19.5 95 +24 +24 комфорт 1019.5 1020.0 +19.2 +25.8 0.2
15 14.01 С 4 15 км мгла 1/1 600 м
[St]
+23.5 +20.9 85 +29 +34 душно 1021.3 1021.0
18 14.01 СЗ 6 15 км мгла 1/1 600 м
[Cu hum]
+24.0 +19.3 75 +29 +33 душно 1019.5 1020.0
21 14.01 С 5 13 км мгла 3/3 750 м
[Cu hum Ci fib]
+23.9 +18.4 71 +28 +29 душно 1018.8 1019.0
00 15.01 штиль 0 50 км ?/? +21.3 +17.6 79 +25 +25 комфорт 1019.3 1019.0 +18.0 +25.0
12 15.01 С 3 19 км 8/8 1200 м
[St]
+18.0 +13.0 73 +18 +18 1019.6 1020.0 +15.6 +25.0
15 15.01 С 4 19 км 3/3 1200 м
[Sc]
+21.1 +13.3 61 +23 +27 комфорт 1021.2 1021.0
18 15.01 С 5 15 км мгла 5/5 900 м
[Cu Sc]
+22.1 +14.4 62 +25 +28 комфорт 1019.1 1019.0
21 15.01 С 4 19 км 9/9 1050 м
[Cu Sc]
+20.4 +14.8 70 +23 +23 комфорт 1019.0 1019.0
00 16.01 С 5 19 км 9/9 750 м
[Cu Sc]
+20.1 +15.3 74 +23 +23 комфорт 1019.6 1020.0 +17.1 +23.0

 

Местоположение метеостанции Большая Багама (Багамские Острова): широта 26.55 долгота -78.70 высота над уровнем моря 11 м.

В архиве по умолчанию представлена погода в Большой Багаме за последнюю неделю. Архивные данные за месяц целиком и за предыдущие месяцы, начиная с января 2011 года, Вы можете получить, выбрав интересующий диапазон дат из раскрывающегося списка и нажав кнопку "Ввод!".


*Определитесь, кто Вы:
робот инопланетянин человек

Внимание! Время в таблицах - всемирное. Для получения местного времени необходимо прибавить поправку, которая равна -4 ч.

Смотрите также архив погоды в соседних городах и на ближайших метеорологических станциях:

Погода в Нассау (Багамские Острова) (208 км)
Погода в Кайо-Коко (Куба) (448 км)
Погода в Кайбарьене (Куба) (455 км)
Погода в Ябу (Куба) (472 км)
Погода в Варадеро (Куба) (480 км)
Погода в Санкти-Спиритусе (Куба) (519 км)
Погода в Каса Бланка (Куба) (526 км)
Погода в Сьенфуэгосе (Куба) (536 км)
Погода в Гавана аэропорту (Куба) (545 км)
Погода в Хукаро (Куба) (549 км)

Пояснения к столбцам:

Ветер - указаны скорость ветра в м/с - средняя за 10 мин, порывы в срок и между сроками (в фигурных скобках) и направление, откуда дует ветер: С - северный, СВ - северо-восточный, В - восточный, ЮВ - юго-восточный, Ю - южный, ЮЗ - юго-западный, З - западный, СЗ - северо-западный.
Видимость - горизонтальная дальность видимости в метрах или километрах. При видимости от 1 до 10 км при отсутствии осадков обычно наблюдается дымка, при ухудшении видимости до 1 км и менее - туман. В сухую погоду видимость может ухудшаться дымом, пылью или мглою.
Явления - указаны атмосферные явления, наблюдавшиеся в срок или в последний час перед сроком; фигурными скобками обозначены явления, наблюдавшиеся между сроками (за 1-3 часа до срока); квадратными скобками обозначены град или гололедные отложения с указанием их диаметра в мм.
Облачность - указаны через наклонную черту общая и нижняя облачность в баллах и высота нижней границы облаков в метрах; квадратными скобками обозначены формы облаков: Ci - перистые, Cs - перисто-слоистые, Cc - перисто-кучевые, Ac - высококучевые, As - высокослоистые, Sc - слоисто-кучевые, Ns - слоисто-дождевые, Cu - кучевые, Cb - кучево-дождевые. Подробнее классификацию облаков см. в Атласе облаков (PDF).
T - Температура воздуха - температура, измеренная на высоте 2 м над землей.
Td - Температура точки росы - температура, при понижении до которой содержащийся в воздухе водяной пар достигнет насыщения.
f - Относительная влажность воздуха - влажноcть воздуха, измеренная на высоте 2 м над землей.
Te - Эффективная температура - температура, которую ощущает одетый по сезону человек в тени. Характеристика душности погоды. При расчете учитывается влияние влажности воздуха и скорости ветра на теплоощущения человека.
Tes - Эффективная температура на солнце - температура, которую ощущает человек, с поправкой на солнечный нагрев. Характеристика знойности погоды. Зависит от высоты солнца над горизонтом, облачности и скорости ветра. Ночью, в пасмурную погоду, а также при ветре 12 м/с и более поправка равна нулю.
P - Атмосферное давление - приведенное к уровню моря атмосферное давление.
Po - Атмосферное давление - измеренное на уровне метеостанции атмосферное давление.
Tmin - Минимальная температура - минимум температуры воздуха на высоте 2 м над землей.
Tmax - Максимальная температура - максимум температуры воздуха на высоте 2 м над землей.
R - Количество осадков - Количество выпавших осадков за период времени, мм. При наведении курсора мыши на число - период времени, за который выпало указанное количество осадков.
R24 - Количество осадков - Количество выпавших осадков за 24 часа, мм.
S - Снежный покров - Высота снежного покрова, см. При наведении курсора мыши на число - состояние снежного покрова и степень покрытия местности в баллах.